[[{"header":{"parameterUnit":"m.s-1","parameterCategory":1,"la1":30.2991,"la2":30.254,"lo1":-89.0895,"lo2":-89.0444,"dx":0.0017,"dy":0.0017,"nx":28,"ny":28,"refTime":"2022-11-26T09:00:00:Z","depth":0,"parameterNumber":2,"parameterNumberName":"U-component_of_WINDS"},"data":[0,0,0,0,0,0,0,0,0,0,0,0,0,0,0,0,0,0,0,0,0,0,0,0,0,0,0,0,0,0,0,0,0,0,0,0,0,0,0,0,0,0,0,0,0,0,0,0,0,0,0,0,0,0,0,0,0,0,-4.8467,-4.847,0,-4.8718,-4.8721,-4.8724,-4.8807,-4.8806,-4.8805,-4.8804,-4.9056,-4.9064,-4.9071,0,0,0,0,0,0,0,0,0,0,0,0,0,-4.8055,-4.8062,-4.8467,-4.847,-4.8473,-4.8718,-4.8721,-4.8725,-4.8808,-4.8806,-4.8805,-4.8804,-4.9054,-4.9063,-4.9072,0,0,0,0,0,0,0,0,0,0,0,0,0,-4.8262,-4.8064,-4.8466,-4.8544,-4.8554,-4.8717,-4.8721,-4.8725,-4.8808,-4.8806,-4.8805,-4.8803,-4.9051,-4.9062,-4.9073,-4.9175,0,0,-4.9108,-4.9113,0,0,0,0,0,0,0,0,-4.8251,-4.8278,-4.853,-4.8539,-4.855,-4.873,-4.8668,-4.8876,-4.8808,-4.8711,-4.8804,-4.8803,-4.8948,-4.8968,-4.9019,-4.9187,-4.9198,-4.9109,-4.9116,-4.9121,-4.9124,0,0,0,0,0,0,0,-4.8236,-4.8267,-4.8566,-4.8533,-4.8546,-4.8565,-4.8593,-4.8708,-4.8835,-4.872,-4.8726,-4.8755,-4.8954,-4.9007,-4.9025,-4.9202,-4.9109,-4.9119,-4.9126,-4.9131,-4.9466,-4.9468,0,0,0,0,0,0,-4.8209,-4.8255,-4.8558,-4.8574,-4.8394,-4.8574,-4.8605,-4.8674,-4.8834,-4.8858,-4.8756,-4.8758,-4.8988,-4.9012,-4.9034,-4.9164,-4.9121,-4.9132,-4.9138,-4.9464,-4.9467,-4.9469,0,0,0,0,0,0,-4.82,-4.8236,-4.8548,-4.8416,-4.8458,-4.8583,-4.8659,-4.8679,-4.8733,-4.8862,-4.8885,-4.8788,-4.8988,-4.9018,-4.914,-4.9174,-4.9137,-4.9148,-4.9462,-4.9465,-4.9468,-4.9424,0,0,0,0,0,0,-4.8188,-4.8232,-4.8273,-4.8417,-4.8464,-4.8651,-4.8661,-4.8686,-4.8754,-4.8758,-4.8898,-4.8919,-4.8989,-4.9122,-4.9151,-4.9189,-4.9157,-4.9459,-4.9463,-4.9467,-4.9423,-4.9425,-4.9427,0,0,0,0,0,-4.8173,-4.825,-4.8275,-4.8311,-4.8519,-4.8653,-4.868,-4.876,-4.8756,-4.8798,-4.8881,-4.8915,-4.9166,-4.9134,-4.9168,-4.9209,-4.9457,-4.9462,-4.9466,-4.9422,-4.9425,-4.9427,0,0,0,0,0,0,-4.8105,-4.827,-4.8299,-4.8425,-4.8524,-4.8666,-4.8721,-4.876,-4.8861,-4.8861,-4.8955,-4.8986,-4.91,-4.9168,-4.9129,-4.9316,-4.9313,-4.9325,-4.9268,-4.9272,-4.9274,-4.9254,-4.9166,0,0,0,0,0,-4.8105,-4.8201,-4.834,-4.8437,-4.8486,-4.8595,-4.8656,-4.871,-4.8816,-4.8857,-4.8949,-4.9049,-4.9151,-4.9215,-4.9316,-4.9434,-4.9465,-4.9479,-4.9481,-4.9482,-4.949,-4.9556,-4.9564,-4.9484,-4.9484,-4.9484,0,0,-4.8105,-4.8207,-4.8262,-4.8426,-4.8509,-4.8606,-4.8629,-4.873,-4.8802,-4.8872,-4.8993,-4.9064,-4.9182,-4.9302,-4.9359,-4.9361,-4.952,-4.9488,-4.9488,-4.9496,-4.9562,-4.9569,-4.9576,-4.9487,-4.9486,-4.9486,0,0,-4.8154,-4.8242,-4.8332,-4.8416,-4.8542,-4.8614,-4.8636,-4.8773,-4.8823,-4.8947,-4.9001,-4.9087,-4.926,-4.9342,-4.9406,-4.9487,-4.9522,-4.9517,-4.9527,-4.959,-4.9596,-4.9603,-4.963,-4.9639,-4.9525,-4.9525,-4.9525,0,-4.8137,-4.8286,-4.8373,-4.8472,-4.8542,-4.8612,-4.8704,-4.878,-4.8932,-4.8978,-4.8978,-4.9197,-4.9281,-4.9421,-4.9441,-4.9491,-4.9517,-4.95,-4.9589,-4.9596,-4.9603,-4.963,-4.964,-4.9523,-4.9523,-4.9524,-4.9524,0,-4.8259,-4.8362,-4.8419,-4.8566,-4.8643,-4.8737,-4.8837,-4.8904,-4.8951,-4.9023,-4.9147,-4.9251,-4.9373,-4.9411,-4.9457,-4.9557,-4.9555,-4.9571,-4.9569,-4.9607,-4.9634,-4.9646,-4.9521,-4.9522,-4.9522,-4.9522,0,0,-4.8271,-4.8465,-4.8485,-4.8552,-4.8697,-4.8777,-4.8874,-4.8996,-4.9051,-4.9154,-4.9236,-4.9382,-4.9398,-4.9471,-4.9527,-4.9583,-4.9639,-4.9593,-4.9597,-4.9596,-4.9754,-4.9739,-4.975,-4.9664,-4.9667,-4.9669,-4.9744,0,-4.8337,-4.8515,-4.8597,-4.8738,-4.8833,-4.8901,-4.8986,-4.9083,-4.9153,-4.9242,-4.9319,-4.942,-4.9435,-4.9479,-4.9538,-4.962,-4.9672,-4.9616,-4.974,-4.9743,-4.9706,-4.9765,-4.975,-4.9815,-4.9755,-4.9757,-4.9758,0,-4.8438,-4.8543,-4.8693,-4.8827,-4.887,-4.8945,-4.9063,-4.9148,-4.9259,-4.9306,-4.9388,-4.9442,-4.9545,-4.9538,-4.9681,-4.9641,-4.9697,-4.9745,-4.9749,-4.9762,-4.9751,-4.9777,-4.9838,-4.9847,-4.9776,-4.9774,-4.9773,0,-4.8429,-4.8607,-4.8721,-4.8776,-4.8936,-4.8986,-4.9055,-4.9165,-4.9233,-4.9336,-4.9381,-4.9493,-4.9554,-4.964,-4.9722,-4.971,-4.9856,-4.9856,-4.9896,-4.9894,-4.9922,-4.9919,-4.9991,-4.9961,-4.9961,-4.9961,-4.9961,0,-4.8494,-4.8583,-4.8719,-4.8788,-4.889,-4.8982,-4.908,-4.9153,-4.9251,-4.9334,-4.94,-4.9477,-4.9583,-4.9672,-4.9738,-4.9845,-4.9872,-4.9912,-4.9928,-4.9905,-4.99,-4.9941,-4.9938,-4.9964,-4.9963,-4.9962,-4.9962,0,-4.85,-4.8595,-4.8723,-4.8864,-4.8901,-4.897,-4.909,-4.9159,-4.9233,-4.9338,-4.9367,-4.9482,-4.9591,-4.9683,-4.9826,-4.987,-4.9981,-5.0001,-4.9943,-4.9951,-4.9985,-4.998,-5.0086,-5.0103,-5.0062,-5.0062,-5.0063,0,-4.8534,-4.8604,-4.8753,-4.8815,-4.8883,-4.8981,-4.9052,-4.9146,-4.9215,-4.9348,-4.9401,-4.9515,-4.9611,-4.9782,-4.9877,-4.9987,-5.0008,-5.0038,-5.0025,-5.0,-5.0007,-5.0001,-5.0008,-5.0038,-5.0038,-5.0038,-5.0038,0,-4.8584,-4.8628,-4.8727,-4.8843,-4.8925,-4.9021,-4.9118,-4.9164,-4.9275,-4.9351,-4.9464,-4.9539,-4.9686,-4.9797,-4.9918,-4.9986,-5.003,-5.0041,-5.0056,-5.0033,-4.9996,-5.0015,-4.9943,-5.0038,-5.0038,-5.0038,-5.0038,-5.0038,-4.8604,-4.867,-4.8785,-4.8893,-4.8977,-4.9066,-4.9138,-4.9221,-4.9318,-4.9446,-4.9495,-4.9611,-4.972,-4.9886,-4.9955,-5.0046,-5.0052,-5.0073,-5.0078,-5.0082,-5.0078,-4.9983,-5.0068,-5.0068,-5.0069,-5.0069,-5.0069,0,-4.8656,-4.8734,-4.8833,-4.8967,-4.9052,-4.9089,-4.9198,-4.9266,-4.9367,-4.9467,-4.9561,-4.969,-4.98,-4.9904,-5.0018,-5.007,-5.0093,-5.0097,-5.0093,-5.0108,-5.0067,-5.0042,-5.0076,-5.0076,-5.0076,-5.0076,-5.0076,-5.0076,-4.8693,-4.8805,-4.8863,-4.9017,-4.9094,-4.9209,-4.9268,-4.935,-4.943,-4.9573,-4.9664,-4.9732,-4.9834,-4.9956,-5.0057,-5.0085,-5.0123,-5.0121,-5.0153,-5.0113,-5.0111,-5.0109,-5.0086,-5.0129,-5.0129,-5.0187,-5.0187,-5.0188]},{"header":{"parameterUnit":"m.s-1","parameterCategory":1,"la1":30.2991,"la2":30.254,"lo1":-89.0895,"lo2":-89.0444,"dx":0.0017,"dy":0.0017,"nx":28,"ny":28,"refTime":"2022-11-26T09:00:00:Z","depth":0,"parameterNumber":3,"parameterNumberName":"V-component_of_WINDS"},"data":[0,0,0,0,0,0,0,0,0,0,0,0,0,0,0,0,0,0,0,0,0,0,0,0,0,0,0,0,0,0,0,0,0,0,0,0,0,0,0,0,0,0,0,0,0,0,0,0,0,0,0,0,0,0,0,0,0,0,5.6632,5.663,0,5.6395,5.6393,5.639,5.6248,5.6247,5.6247,5.6246,5.5994,5.5988,5.5982,0,0,0,0,0,0,0,0,0,0,0,0,0,5.6954,5.6949,5.6633,5.663,5.6627,5.6396,5.6393,5.6389,5.6248,5.6247,5.6247,5.6246,5.5996,5.5989,5.5982,0,0,0,0,0,0,0,0,0,0,0,0,0,5.6776,5.6947,5.6633,5.6529,5.6517,5.6397,5.6393,5.6388,5.6248,5.6247,5.6246,5.6245,5.5999,5.599,5.5981,5.5943,0,0,5.5953,5.5949,0,0,0,0,0,0,0,0,5.6786,5.6764,5.6547,5.6536,5.6522,5.6351,5.6413,5.6239,5.6248,5.635,5.6246,5.6245,5.6113,5.6094,5.6052,5.5931,5.592,5.5952,5.5946,5.5942,5.594,0,0,0,0,0,0,0,5.6798,5.6773,5.6538,5.6544,5.6529,5.6491,5.6464,5.638,5.6239,5.6341,5.633,5.6305,5.6106,5.6061,5.6045,5.5917,5.5952,5.5944,5.5938,5.5935,5.5753,5.5754,0,0,0,0,0,0,5.6829,5.6785,5.6546,5.6531,5.6655,5.6486,5.6456,5.6406,5.624,5.6214,5.6306,5.6299,5.6077,5.6055,5.6035,5.5981,5.5942,5.5934,5.5928,5.5753,5.5753,5.5754,0,0,0,0,0,0,5.6836,5.6809,5.6556,5.6655,5.662,5.6481,5.6427,5.6402,5.6357,5.6213,5.6187,5.6286,5.6075,5.6048,5.5968,5.597,5.593,5.5921,5.5752,5.5753,5.5754,5.5872,0,0,0,0,0,0,5.6846,5.6812,5.6799,5.6656,5.6615,5.6495,5.6427,5.6398,5.6343,5.6332,5.6188,5.6163,5.6072,5.5982,5.5959,5.5957,5.5914,5.5751,5.5752,5.5753,5.5867,5.5877,5.5885,0,0,0,0,0,5.6858,5.6839,5.6799,5.6771,5.6596,5.6496,5.6472,5.6371,5.6344,5.6327,5.6235,5.6167,5.5974,5.5975,5.5947,5.5943,5.575,5.5752,5.5753,5.5863,5.5875,5.5885,0,0,0,0,0,0,5.6982,5.6819,5.6772,5.6707,5.6617,5.6472,5.6448,5.6386,5.63,5.6292,5.6168,5.6136,5.6068,5.5996,5.6001,5.5897,5.5854,5.585,5.5947,5.5957,5.5966,5.5985,5.5906,0,0,0,0,0,5.7003,5.6938,5.6797,5.6753,5.6711,5.6588,5.654,5.6471,5.6371,5.6331,5.6232,5.6136,5.6053,5.6001,5.5916,5.5856,5.5822,5.5839,5.5848,5.5856,5.5854,5.5817,5.5823,5.5759,5.5759,5.5759,0,0,5.7043,5.6946,5.6912,5.6776,5.6698,5.6631,5.6557,5.6489,5.6438,5.6319,5.6239,5.6163,5.6047,5.5977,5.5941,5.5915,5.5864,5.5858,5.5865,5.5859,5.5819,5.5825,5.5831,5.576,5.576,5.576,0,0,5.7083,5.7004,5.6959,5.6883,5.6767,5.6685,5.6675,5.654,5.6486,5.6404,5.6314,5.6249,5.6109,5.603,5.5972,5.5984,5.5918,5.5959,5.6006,5.5971,5.5976,5.598,5.5985,5.5988,5.5958,5.5958,5.5958,0,5.7148,5.7047,5.6943,5.6882,5.6824,5.6717,5.667,5.66,5.6461,5.6423,5.6396,5.622,5.6133,5.6043,5.6047,5.6003,5.5985,5.5975,5.5985,5.5987,5.5989,5.5992,5.5994,5.5964,5.5963,5.5962,5.5962,0,5.7132,5.7063,5.704,5.6914,5.6853,5.6799,5.6684,5.6635,5.657,5.6491,5.6408,5.6301,5.6194,5.6167,5.6102,5.6068,5.6056,5.6009,5.5963,5.6003,5.6004,5.6004,5.5972,5.597,5.5968,5.5967,0,0,5.7244,5.7061,5.7055,5.6996,5.6861,5.6804,5.6744,5.6642,5.6603,5.651,5.6456,5.6341,5.6297,5.6231,5.6155,5.6125,5.6142,5.6081,5.6076,5.6097,5.6098,5.6135,5.6138,5.6097,5.6097,5.6097,5.6108,0,5.7265,5.7156,5.7061,5.6986,5.6921,5.6819,5.6766,5.6676,5.6601,5.6532,5.6446,5.6367,5.6315,5.6275,5.624,5.6148,5.614,5.6145,5.6044,5.6042,5.6078,5.6138,5.6176,5.6192,5.6107,5.6107,5.6107,0,5.7275,5.7191,5.7111,5.6983,5.6952,5.6908,5.6807,5.6743,5.6638,5.6585,5.6512,5.6434,5.6364,5.6325,5.6226,5.6232,5.6184,5.6132,5.613,5.6117,5.6078,5.6127,5.6194,5.6197,5.6106,5.6106,5.6106,0,5.7366,5.7232,5.7167,5.712,5.6969,5.694,5.6875,5.6769,5.6714,5.6625,5.6588,5.6491,5.6438,5.6363,5.626,5.6241,5.6171,5.6124,5.6124,5.6127,5.6114,5.6116,5.6175,5.6083,5.6083,5.6083,5.6083,0,5.74,5.7355,5.7207,5.7167,5.7113,5.7003,5.6951,5.6877,5.6784,5.6726,5.6629,5.6576,5.6444,5.6374,5.6292,5.6222,5.6198,5.6152,5.6131,5.6161,5.6168,5.6129,5.6125,5.6083,5.6083,5.6083,5.6083,0,5.7493,5.7392,5.7315,5.7179,5.7144,5.711,5.6992,5.6948,5.6867,5.6795,5.6772,5.6644,5.6557,5.6447,5.6323,5.6269,5.6208,5.6175,5.6245,5.6233,5.6239,5.6241,5.6276,5.6275,5.6184,5.6185,5.6186,0,5.7523,5.7486,5.7348,5.7304,5.7243,5.7173,5.7117,5.7006,5.6952,5.683,5.68,5.6707,5.6626,5.6491,5.6386,5.6291,5.6255,5.6274,5.624,5.6272,5.6256,5.6261,5.6256,5.6283,5.6285,5.6286,5.6287,0,5.7585,5.7537,5.7463,5.7372,5.7309,5.723,5.7147,5.7116,5.6987,5.693,5.6842,5.678,5.6656,5.6564,5.6456,5.6385,5.6314,5.6299,5.6294,5.6325,5.6367,5.6345,5.627,5.6299,5.6297,5.6297,5.6296,5.6296,5.7647,5.7611,5.7508,5.7429,5.7355,5.728,5.7233,5.7147,5.7073,5.6966,5.6903,5.6818,5.6712,5.656,5.6492,5.6421,5.6395,5.6388,5.6386,5.6386,5.6396,5.6379,5.6401,5.64,5.64,5.64,5.6399,0,5.7706,5.7635,5.7563,5.7452,5.7389,5.7331,5.7236,5.7186,5.7113,5.7022,5.6946,5.6844,5.6755,5.6643,5.6545,5.6509,5.6475,5.6487,5.6489,5.6474,5.6425,5.644,5.6517,5.6517,5.6517,5.6517,5.6517,5.6517,5.7729,5.7665,5.7605,5.7503,5.743,5.7349,5.7299,5.7229,5.7156,5.7048,5.6975,5.6903,5.6803,5.6697,5.6611,5.658,5.6549,5.6572,5.6531,5.6488,5.6477,5.6467,5.6481,5.6566,5.6566,5.6586,5.6586,5.6587]}]]